When you browse on this site, cookies collect data to enhance your experience and personalize the content and advertising you see.
Visit our Privacy Policy to learn more. By continuing to use the site, you agree to this use of cookies and data.
  • In France
  • List of Countries
  • For 7 days
  • Water Temperature
  • Satellite Maps
  • Weather Map
  • Weather Widgets
  • user-avatar
    Login

    Hourly Weather Mendoza

    Today, 22 January, Tuesday

    Time Temperature Precipitation Wind Pressure Humidity
    00:00 +29°C° 0 mm 2 mps 697 mmHg 47%
    01:00 +28°C° 0 mm 2 mps 697 mmHg 51%
    02:00 +28°C° 0 mm 1 mps 697 mmHg 54%
    03:00 +27°C° 0 mm 1 mps 696 mmHg 58%
    04:00 +26°C° 0 mm 1 mps 696 mmHg 61%
    05:00 +27°C° 0 mm 1 mps 696 mmHg 57%
    06:00 +28°C° 0 mm 1 mps 697 mmHg 53%
    07:00 +30°C° 0 mm 2 mps 697 mmHg 49%
    08:00 +31°C° 0 mm 2 mps 697 mmHg 45%
    09:00 +32°C° 0 mm 2 mps 697 mmHg 41%
    10:00 +35°C° 0 mm 3 mps 697 mmHg 37%
    11:00 +36°C° 0 mm 3 mps 697 mmHg 34%
    12:00 +37°C° 0 mm 3 mps 697 mmHg 32%
    13:00 +38°C° 0 mm 4 mps 697 mmHg 30%
    14:00 +38°C° 0 mm 4 mps 696 mmHg 29%
    15:00 +38°C° 0 mm 4 mps 696 mmHg 28%
    16:00 +40°C° 0 mm 4 mps 696 mmHg 28%
    17:00 +38°C° 0 mm 3 mps 696 mmHg 29%
    18:00 +37°C° 0 mm 3 mps 697 mmHg 30%
    19:00 +36°C° 0 mm 2 mps 697 mmHg 32%
    20:00 +35°C° 0.2 mm 2 mps 698 mmHg 36%
    21:00 +33°C° 0.2 mm 1 mps 698 mmHg 39%
    22:00 +32°C° 0.2 mm 1 mps 699 mmHg 43%
    23:00 +31°C° 0.4 mm 3 mps 699 mmHg 43%

    Tomorrow, 23 January, Wednesday

    Time Temperature Precipitation Wind Pressure Humidity
    00:00 +30°C° 0.4 mm 4 mps 699 mmHg 42%
    01:00 +29°C° 0.4 mm 6 mps 698 mmHg 42%
    02:00 +29°C° 0 mm 6 mps 698 mmHg 39%
    03:00 +28°C° 0 mm 6 mps 698 mmHg 36%
    04:00 +27°C° 0 mm 6 mps 698 mmHg 33%
    05:00 +27°C° 0 mm 6 mps 699 mmHg 32%
    06:00 +28°C° 0 mm 6 mps 699 mmHg 30%
    07:00 +28°C° 0 mm 6 mps 699 mmHg 29%
    08:00 +29°C° 0 mm 6 mps 699 mmHg 29%
    09:00 +32°C° 0 mm 5 mps 699 mmHg 29%
    10:00 +34°C° 0 mm 5 mps 699 mmHg 29%
    11:00 +35°C° 0 mm 4 mps 699 mmHg 28%
    12:00 +35°C° 0 mm 4 mps 698 mmHg 27%
    13:00 +36°C° 0 mm 3 mps 698 mmHg 26%
    14:00 +37°C° 0 mm 3 mps 697 mmHg 27%
    15:00 +37°C° 0 mm 3 mps 697 mmHg 27%
    16:00 +37°C° 0 mm 2 mps 697 mmHg 27%
    17:00 +37°C° 0 mm 2 mps 697 mmHg 29%
    18:00 +35°C° 0 mm 1 mps 697 mmHg 31%
    19:00 +34°C° 0 mm 1 mps 697 mmHg 33%
    20:00 +34°C° 0.1 mm 1 mps 697 mmHg 34%
    21:00 +33°C° 0.1 mm 1 mps 698 mmHg 36%
    22:00 +34°C° 0.1 mm 2 mps 698 mmHg 38%
    23:00 +32°C° 0.1 mm 2 mps 697 mmHg 39%

    Day after tomorrow, 24 January, Thursday

    Time Temperature Precipitation Wind Pressure Humidity
    00:00 +31°C° 0.1 mm 2 mps 697 mmHg 41%
    01:00 +31°C° 0.1 mm 2 mps 697 mmHg 42%
    02:00 +30°C° 0 mm 2 mps 696 mmHg 44%
    03:00 +29°C° 0 mm 1 mps 696 mmHg 45%
    04:00 +29°C° 0 mm 1 mps 696 mmHg 46%
    05:00 +30°C° 0 mm 1 mps 696 mmHg 45%
    06:00 +31°C° 0 mm 2 mps 696 mmHg 44%
    07:00 +32°C° 0 mm 2 mps 697 mmHg 43%
    08:00 +34°C° 0 mm 2 mps 696 mmHg 41%
    09:00 +35°C° 0 mm 3 mps 696 mmHg 39%
    10:00 +37°C° 0 mm 4 mps 696 mmHg 37%
    11:00 +38°C° 0 mm 4 mps 696 mmHg 35%
    12:00 +40°C° 0 mm 4 mps 695 mmHg 33%
    13:00 +41°C° 0 mm 4 mps 695 mmHg 31%
    14:00 +40°C° 0 mm 3 mps 695 mmHg 30%
    15:00 +42°C° 0 mm 3 mps 694 mmHg 29%
    16:00 +42°C° 0 mm 3 mps 694 mmHg 28%
    17:00 +40°C° 0.1 mm 2 mps 694 mmHg 30%
    18:00 +39°C° 0.1 mm 2 mps 694 mmHg 31%
    19:00 +38°C° 0.1 mm 2 mps 695 mmHg 32%
    20:00 +38°C° 0 mm 2 mps 695 mmHg 33%
    21:00 +36°C° 0 mm 1 mps 695 mmHg 35%
    22:00 +35°C° 0 mm 1 mps 696 mmHg 36%
    23:00 +36°C° 0.2 mm 2 mps 695 mmHg 40%

    25 January, Friday

    Time Temperature Precipitation Wind Pressure Humidity
    00:00 +35°C° 0.2 mm 3 mps 695 mmHg 43%
    01:00 +34°C° 0.2 mm 3 mps 694 mmHg 46%
    02:00 +33°C° 0 mm 4 mps 694 mmHg 49%
    03:00 +33°C° 0 mm 4 mps 694 mmHg 52%
    04:00 +32°C° 0 mm 5 mps 694 mmHg 55%
    05:00 +32°C° 0 mm 6 mps 695 mmHg 55%
    06:00 +32°C° 0 mm 7 mps 695 mmHg 54%
    07:00 +32°C° 0 mm 9 mps 696 mmHg 53%
    08:00 +34°C° 0 mm 8 mps 696 mmHg 49%
    09:00 +35°C° 0 mm 7 mps 696 mmHg 44%
    10:00 +38°C° 0 mm 7 mps 697 mmHg 39%
    11:00 +39°C° 0.2 mm 6 mps 696 mmHg 38%
    12:00 +39°C° 0.2 mm 6 mps 696 mmHg 37%
    13:00 +40°C° 0.2 mm 5 mps 696 mmHg 36%
    14:00 +40°C° 0.6 mm 5 mps 696 mmHg 36%
    15:00 +40°C° 0.6 mm 4 mps 696 mmHg 35%
    16:00 +40°C° 0.6 mm 4 mps 696 mmHg 35%
    17:00 +38°C° 1.3 mm 4 mps 696 mmHg 38%
    18:00 +37°C° 1.3 mm 3 mps 696 mmHg 41%
    19:00 +36°C° 1.3 mm 3 mps 696 mmHg 44%
    20:00 +36°C° 0 mm 3 mps 697 mmHg 45%
    21:00 +35°C° 0 mm 2 mps 697 mmHg 46%
    22:00 +35°C° 0 mm 2 mps 697 mmHg 47%
    23:00 +34°C° 2.1 mm 2 mps 697 mmHg 51%

    26 January, Saturday

    Time Temperature Precipitation Wind Pressure Humidity
    00:00 +33°C° 2.1 mm 3 mps 697 mmHg 56%
    01:00 +32°C° 2.1 mm 4 mps 696 mmHg 60%
    02:00 +30°C° 0.9 mm 4 mps 696 mmHg 62%
    03:00 +30°C° 0.9 mm 4 mps 696 mmHg 64%
    04:00 +30°C° 0.9 mm 5 mps 696 mmHg 66%
    05:00 +29°C° 1.4 mm 5 mps 697 mmHg 66%
    06:00 +29°C° 1.4 mm 5 mps 697 mmHg 66%
    07:00 +29°C° 1.4 mm 5 mps 698 mmHg 66%
    08:00 +30°C° 0.5 mm 5 mps 698 mmHg 59%
    09:00 +32°C° 0.5 mm 5 mps 698 mmHg 53%
    10:00 +34°C° 0.5 mm 5 mps 698 mmHg 46%
    11:00 +34°C° 0.1 mm 5 mps 698 mmHg 43%
    12:00 +35°C° 0.1 mm 4 mps 697 mmHg 39%
    13:00 +36°C° 0.1 mm 4 mps 697 mmHg 36%
    14:00 +36°C° 0 mm 4 mps 696 mmHg 35%
    15:00 +37°C° 0 mm 3 mps 696 mmHg 34%
    16:00 +37°C° 0 mm 3 mps 696 mmHg 33%
    17:00 +36°C° 0 mm 3 mps 696 mmHg 35%
    18:00 +35°C° 0 mm 2 mps 696 mmHg 37%
    19:00 +33°C° 0 mm 1 mps 696 mmHg 40%
    20:00 +33°C° 0 mm 1 mps 697 mmHg 42%
    21:00 +32°C° 0 mm 1 mps 697 mmHg 44%
    22:00 +32°C° 0 mm 1 mps 697 mmHg 46%
    23:00 +31°C° 0 mm 1 mps 696 mmHg 48%

    27 January, Sunday

    Time Temperature Precipitation Wind Pressure Humidity
    00:00 +31°C° 0 mm 1 mps 696 mmHg 49%
    01:00 +31°C° 0 mm 1 mps 696 mmHg 51%
    02:00 +30°C° 0 mm 1 mps 695 mmHg 53%
    03:00 +30°C° 0 mm 1 mps 695 mmHg 55%
    04:00 +29°C° 0 mm 1 mps 695 mmHg 56%
    05:00 +30°C° 0 mm 1 mps 696 mmHg 55%
    06:00 +31°C° 0 mm 2 mps 696 mmHg 53%
    07:00 +32°C° 0 mm 2 mps 697 mmHg 52%
    08:00 +34°C° 0 mm 2 mps 697 mmHg 49%
    09:00 +35°C° 0 mm 2 mps 697 mmHg 45%
    10:00 +36°C° 0 mm 2 mps 697 mmHg 42%
    11:00 +37°C° 0.1 mm 3 mps 697 mmHg 40%
    12:00 +38°C° 0.1 mm 4 mps 697 mmHg 38%
    13:00 +40°C° 0.1 mm 4 mps 696 mmHg 35%
    14:00 +38°C° 0.4 mm 4 mps 696 mmHg 37%
    15:00 +38°C° 0.4 mm 4 mps 696 mmHg 38%
    16:00 +39°C° 0.4 mm 5 mps 696 mmHg 39%
    17:00 +37°C° 2 mm 4 mps 697 mmHg 43%
    18:00 +36°C° 2 mm 3 mps 697 mmHg 47%
    19:00 +35°C° 2 mm 2 mps 697 mmHg 51%
    20:00 +33°C° 3.3 mm 4 mps 698 mmHg 59%
    21:00 +30°C° 3.3 mm 5 mps 698 mmHg 67%
    22:00 +29°C° 3.3 mm 7 mps 698 mmHg 74%
    23:00 +28°C° 3.2 mm 6 mps 698 mmHg 75%
    Show more